Time,TemperatureF,DewpointF,PressureIn,WindDirection,WindDirectionDegrees,WindSpeedMPH,WindSpeedGustMPH,Humidity,HourlyPrecipIn,Conditions,Clouds,dailyrainin,SolarRadiationWatts/m^2,SoftwareType,DateUTC
2013-06-13 00:01:00,56.9,56.0,29.68,ENE,78,0.0,7.0,97,0.00,,,0.00,0,weatherlink.com 1.10,2013-06-13 05:01:00,
2013-06-13 00:16:00,57.7,57.0,29.68,NE,55,2.0,4.0,98,0.00,,,0.00,0,weatherlink.com 1.10,2013-06-13 05:16:00,
2013-06-13 00:31:00,57.5,57.0,29.68,North,351,2.0,5.0,97,0.00,,,0.00,0,weatherlink.com 1.10,2013-06-13 05:31:00,
2013-06-13 00:46:00,57.5,57.0,29.68,NE,49,1.0,6.0,97,0.00,,,0.00,0,weatherlink.com 1.10,2013-06-13 05:46:00,
2013-06-13 01:01:00,57.4,57.0,29.68,NE,44,3.0,4.0,97,0.00,,,0.00,0,weatherlink.com 1.10,2013-06-13 06:01:00,
2013-06-13 01:16:00,57.3,57.0,29.68,NW,326,5.0,6.0,97,0.00,,,0.00,0,weatherlink.com 1.10,2013-06-13 06:16:00,
2013-06-13 01:31:00,57.2,56.0,29.70,NW,311,2.0,8.0,97,0.00,,,0.00,0,weatherlink.com 1.10,2013-06-13 06:31:00,
2013-06-13 01:46:00,57.7,57.0,29.70,WNW,298,4.0,6.0,97,0.00,,,0.00,0,weatherlink.com 1.10,2013-06-13 06:46:00,
2013-06-13 02:01:00,58.2,57.0,29.70,NW,322,2.0,7.0,96,0.00,,,0.00,0,weatherlink.com 1.10,2013-06-13 07:01:00,
2013-06-13 02:16:00,58.6,57.0,29.69,NE,35,3.0,11.0,93,0.00,,,0.00,0,weatherlink.com 1.10,2013-06-13 07:16:00,
2013-06-13 02:31:00,58.5,56.0,29.70,NW,319,2.0,9.0,90,0.00,,,0.00,0,weatherlink.com 1.10,2013-06-13 07:31:00,
2013-06-13 02:46:00,59.2,55.0,29.70,NNW,341,1.0,9.0,85,0.00,,,0.00,0,weatherlink.com 1.10,2013-06-13 07:46:00,
2013-06-13 03:01:00,59.6,54.0,29.71,NNW,344,1.0,10.0,81,0.00,,,0.00,0,weatherlink.com 1.10,2013-06-13 08:01:00,
2013-06-13 03:16:00,60.2,54.0,29.72,North,9,4.0,9.0,80,0.00,,,0.00,0,weatherlink.com 1.10,2013-06-13 08:16:00,
2013-06-13 03:31:00,60.9,54.0,29.72,ENE,76,3.0,14.0,77,0.00,,,0.00,0,weatherlink.com 1.10,2013-06-13 08:31:00,
2013-06-13 03:46:00,61.1,54.0,29.73,NNE,22,3.0,7.0,76,0.00,,,0.00,0,weatherlink.com 1.10,2013-06-13 08:46:00,
2013-06-13 04:01:00,61.3,54.0,29.74,NNE,28,2.0,11.0,76,0.00,,,0.00,0,weatherlink.com 1.10,2013-06-13 09:01:00,
2013-06-13 04:16:00,61.3,53.0,29.75,NW,306,1.0,7.0,75,0.00,,,0.00,0,weatherlink.com 1.10,2013-06-13 09:16:00,
2013-06-13 04:31:00,61.4,53.0,29.76,NNW,330,2.0,7.0,75,0.00,,,0.00,0,weatherlink.com 1.10,2013-06-13 09:31:00,
2013-06-13 04:47:00,61.6,54.0,29.77,ENE,66,5.0,10.0,76,0.00,,,0.00,0,weatherlink.com 1.10,2013-06-13 09:47:00,
2013-06-13 05:01:00,61.8,54.0,29.77,NE,51,5.0,11.0,76,0.00,,,0.00,0,weatherlink.com 1.10,2013-06-13 10:01:00,
2013-06-13 05:16:00,61.4,54.0,29.78,NNW,335,2.0,11.0,76,0.00,,,0.00,0,weatherlink.com 1.10,2013-06-13 10:16:00,
2013-06-13 05:31:00,60.2,53.0,29.80,NW,310,2.0,7.0,78,0.00,,,0.00,14,weatherlink.com 1.10,2013-06-13 10:31:00,
2013-06-13 05:46:00,59.3,53.0,29.80,NNE,30,2.0,10.0,79,0.00,,,0.00,18,weatherlink.com 1.10,2013-06-13 10:46:00,
2013-06-13 06:01:00,58.9,53.0,29.81,ENE,71,4.0,7.0,80,0.00,,,0.00,25,weatherlink.com 1.10,2013-06-13 11:01:00,
2013-06-13 06:16:00,58.5,53.0,29.82,NE,38,1.0,12.0,81,0.00,,,0.00,53,weatherlink.com 1.10,2013-06-13 11:16:00,
2013-06-13 06:32:00,57.9,53.0,29.83,NE,44,2.0,8.0,83,0.00,,,0.00,49,weatherlink.com 1.10,2013-06-13 11:32:00,
2013-06-13 06:47:00,57.5,53.0,29.83,NE,56,1.0,5.0,85,0.00,,,0.00,70,weatherlink.com 1.10,2013-06-13 11:47:00,
2013-06-13 07:02:00,58.0,53.0,29.84,NW,320,0.0,6.0,84,0.00,,,0.00,65,weatherlink.com 1.10,2013-06-13 12:02:00,
2013-06-13 07:17:00,58.4,54.0,29.84,North,360,0.0,4.0,85,0.00,,,0.00,70,weatherlink.com 1.10,2013-06-13 12:17:00,
2013-06-13 07:32:00,59.0,54.0,29.85,NNE,31,2.0,5.0,84,0.00,,,0.00,81,weatherlink.com 1.10,2013-06-13 12:32:00,
2013-06-13 07:47:00,60.3,54.0,29.86,NNE,27,1.0,7.0,81,0.00,,,0.00,139,weatherlink.com 1.10,2013-06-13 12:47:00,
2013-06-13 08:02:00,61.4,55.0,29.86,ENE,65,2.0,6.0,78,0.00,,,0.00,62,weatherlink.com 1.10,2013-06-13 13:02:00,
2013-06-13 08:17:00,62.2,55.0,29.87,NW,313,3.0,9.0,76,0.00,,,0.00,229,weatherlink.com 1.10,2013-06-13 13:17:00,
2013-06-13 08:32:00,62.9,55.0,29.87,NNW,342,2.0,8.0,75,0.00,,,0.00,338,weatherlink.com 1.10,2013-06-13 13:32:00,
2013-06-13 08:47:00,62.7,55.0,29.88,North,351,2.0,7.0,76,0.00,,,0.00,559,weatherlink.com 1.10,2013-06-13 13:47:00,
2013-06-13 09:02:00,63.3,55.0,29.88,ENE,75,1.0,6.0,75,0.00,,,0.00,598,weatherlink.com 1.10,2013-06-13 14:02:00,
2013-06-13 09:17:00,64.4,56.0,29.89,ENE,61,3.0,10.0,74,0.00,,,0.00,638,weatherlink.com 1.10,2013-06-13 14:17:00,
2013-06-13 09:32:00,64.9,56.0,29.89,NNE,28,2.0,9.0,73,0.00,,,0.00,675,weatherlink.com 1.10,2013-06-13 14:32:00,
2013-06-13 09:47:00,64.7,57.0,29.89,NNW,347,2.0,9.0,75,0.00,,,0.00,708,weatherlink.com 1.10,2013-06-13 14:47:00,
2013-06-13 10:02:00,64.7,57.0,29.90,WNW,286,4.0,8.0,76,0.00,,,0.00,744,weatherlink.com 1.10,2013-06-13 15:02:00,
2013-06-13 10:17:00,64.1,56.0,29.91,NE,36,4.0,11.0,76,0.00,,,0.00,772,weatherlink.com 1.10,2013-06-13 15:17:00,
2013-06-13 10:32:00,64.1,56.0,29.91,NE,36,2.0,10.0,76,0.00,,,0.00,805,weatherlink.com 1.10,2013-06-13 15:32:00,
2013-06-13 10:47:00,63.5,56.0,29.92,NNE,32,1.0,8.0,77,0.00,,,0.00,830,weatherlink.com 1.10,2013-06-13 15:47:00,
2013-06-13 11:03:00,63.4,56.0,29.92,NE,48,1.0,7.0,78,0.00,,,0.00,849,weatherlink.com 1.10,2013-06-13 16:03:00,
2013-06-13 11:18:00,62.8,57.0,29.92,ENE,76,3.0,8.0,80,0.00,,,0.00,872,weatherlink.com 1.10,2013-06-13 16:18:00,
2013-06-13 11:33:00,62.1,56.0,29.93,ENE,69,2.0,8.0,80,0.00,,,0.00,886,weatherlink.com 1.10,2013-06-13 16:33:00,
2013-06-13 11:48:00,62.1,56.0,29.93,East,86,5.0,6.0,80,0.00,,,0.00,902,weatherlink.com 1.10,2013-06-13 16:48:00,
2013-06-13 12:03:00,62.1,56.0,29.94,East,84,2.0,5.0,80,0.00,,,0.00,912,weatherlink.com 1.10,2013-06-13 17:03:00,
2013-06-13 12:18:00,61.1,55.0,29.94,NE,45,2.0,8.0,81,0.00,,,0.00,919,weatherlink.com 1.10,2013-06-13 17:18:00,
2013-06-13 12:33:00,60.4,55.0,29.94,ENE,76,7.0,9.0,81,0.00,,,0.00,928,weatherlink.com 1.10,2013-06-13 17:33:00,
2013-06-13 12:48:00,60.9,55.0,29.95,ENE,68,2.0,9.0,80,0.00,,,0.00,926,weatherlink.com 1.10,2013-06-13 17:48:00,
2013-06-13 13:03:00,60.5,54.0,29.95,ENE,63,2.0,7.0,80,0.00,,,0.00,926,weatherlink.com 1.10,2013-06-13 18:03:00,
2013-06-13 13:18:00,62.4,56.0,29.96,NE,42,2.0,6.0,79,0.00,,,0.00,919,weatherlink.com 1.10,2013-06-13 18:18:00,
2013-06-13 13:33:00,60.9,55.0,29.96,NE,43,6.0,7.0,80,0.00,,,0.00,262,weatherlink.com 1.10,2013-06-13 18:33:00,
2013-06-13 13:48:00,62.6,56.0,29.96,ENE,63,4.0,7.0,78,0.00,,,0.00,898,weatherlink.com 1.10,2013-06-13 18:48:00,
2013-06-13 14:03:00,63.4,55.0,29.96,NE,55,2.0,5.0,75,0.00,,,0.00,1032,weatherlink.com 1.10,2013-06-13 19:03:00,
2013-06-13 14:18:00,61.0,54.0,29.97,ENE,58,0.0,6.0,79,0.00,,,0.00,309,weatherlink.com 1.10,2013-06-13 19:18:00,
2013-06-13 14:33:00,60.5,55.0,29.97,ENE,61,1.0,6.0,81,0.00,,,0.00,151,weatherlink.com 1.10,2013-06-13 19:33:00,
2013-06-13 14:48:00,60.7,55.0,29.97,NE,42,6.0,6.0,80,0.00,,,0.00,1013,weatherlink.com 1.10,2013-06-13 19:48:00,
2013-06-13 15:03:00,60.2,54.0,29.97,ENE,73,1.0,5.0,81,0.00,,,0.00,255,weatherlink.com 1.10,2013-06-13 20:03:00,
2013-06-13 15:18:00,61.8,55.0,29.97,NE,36,4.0,6.0,78,0.00,,,0.00,786,weatherlink.com 1.10,2013-06-13 20:18:00,
2013-06-13 15:33:00,62.8,55.0,29.97,ENE,69,3.0,8.0,76,0.00,,,0.00,830,weatherlink.com 1.10,2013-06-13 20:33:00,
2013-06-13 15:48:00,61.3,55.0,29.98,ENE,67,2.0,7.0,79,0.00,,,0.00,700,weatherlink.com 1.10,2013-06-13 20:48:00,
2013-06-13 16:03:00,61.5,56.0,29.99,ENE,72,1.0,6.0,81,0.00,,,0.00,666,weatherlink.com 1.10,2013-06-13 21:03:00,
2013-06-13 16:18:00,59.5,54.0,29.98,ENE,66,2.0,8.0,82,0.00,,,0.00,621,weatherlink.com 1.10,2013-06-13 21:18:00,
2013-06-13 16:33:00,59.8,54.0,29.99,NE,46,3.0,7.0,80,0.00,,,0.00,585,weatherlink.com 1.10,2013-06-13 21:33:00,
2013-06-13 16:48:00,58.9,54.0,29.99,North,355,2.0,7.0,84,0.00,,,0.00,541,weatherlink.com 1.10,2013-06-13 21:48:00,
2013-06-13 17:03:00,59.6,54.0,29.99,NW,325,2.0,6.0,82,0.00,,,0.00,503,weatherlink.com 1.10,2013-06-13 22:03:00,
2013-06-13 17:18:00,58.9,54.0,29.99,NE,56,2.0,8.0,83,0.00,,,0.00,461,weatherlink.com 1.10,2013-06-13 22:18:00,
2013-06-13 17:33:00,58.8,54.0,29.99,ENE,57,2.0,7.0,83,0.00,,,0.00,418,weatherlink.com 1.10,2013-06-13 22:33:00,
2013-06-13 17:48:00,58.5,53.0,29.99,NNE,26,2.0,5.0,83,0.00,,,0.00,54,weatherlink.com 1.10,2013-06-13 22:48:00,
2013-06-13 18:03:00,58.4,53.0,29.98,SSE,153,2.0,7.0,83,0.00,,,0.00,100,weatherlink.com 1.10,2013-06-13 23:03:00,
2013-06-13 18:18:00,58.6,53.0,29.98,NE,56,2.0,5.0,82,0.00,,,0.00,53,weatherlink.com 1.10,2013-06-13 23:18:00,
2013-06-13 18:33:00,58.3,53.0,29.99,ENE,61,2.0,8.0,83,0.00,,,0.00,54,weatherlink.com 1.10,2013-06-13 23:33:00,
2013-06-13 18:48:00,58.4,53.0,29.99,NW,324,3.0,6.0,82,0.00,,,0.00,51,weatherlink.com 1.10,2013-06-13 23:48:00,
2013-06-13 19:03:00,58.4,53.0,29.99,NNW,341,3.0,7.0,81,0.00,,,0.00,127,weatherlink.com 1.10,2013-06-14 00:03:00,
2013-06-13 19:18:00,58.1,52.0,29.99,North,360,2.0,6.0,81,0.00,,,0.00,37,weatherlink.com 1.10,2013-06-14 00:18:00,
2013-06-13 19:33:00,57.8,52.0,30.00,NNW,331,5.0,5.0,82,0.00,,,0.00,40,weatherlink.com 1.10,2013-06-14 00:33:00,
2013-06-13 19:48:00,57.2,52.0,30.00,NE,53,2.0,5.0,83,0.00,,,0.00,23,weatherlink.com 1.10,2013-06-14 00:48:00,
2013-06-13 20:03:00,56.9,52.0,30.01,ENE,70,0.0,4.0,83,0.00,,,0.00,16,weatherlink.com 1.10,2013-06-14 01:03:00,
2013-06-13 20:18:00,56.7,52.0,30.01,NW,318,0.0,6.0,84,0.00,,,0.00,9,weatherlink.com 1.10,2013-06-14 01:18:00,
2013-06-13 20:33:00,56.3,52.0,30.02,NE,39,0.0,4.0,84,0.00,,,0.00,0,weatherlink.com 1.10,2013-06-14 01:33:00,
2013-06-13 20:48:00,56.1,52.0,30.02,NNE,15,2.0,4.0,85,0.00,,,0.00,0,weatherlink.com 1.10,2013-06-14 01:48:00,
2013-06-13 21:03:00,56.0,52.0,30.03,NNW,331,0.0,7.0,85,0.00,,,0.00,0,weatherlink.com 1.10,2013-06-14 02:03:00,
2013-06-13 21:18:00,55.8,51.0,30.03,ENE,78,2.0,3.0,85,0.00,,,0.00,0,weatherlink.com 1.10,2013-06-14 02:18:00,
2013-06-13 21:33:00,55.7,52.0,30.04,NNE,22,2.0,5.0,86,0.00,,,0.00,0,weatherlink.com 1.10,2013-06-14 02:33:00,
2013-06-13 21:49:00,55.7,52.0,30.04,ENE,59,3.0,4.0,86,0.00,,,0.00,0,weatherlink.com 1.10,2013-06-14 02:49:00,
2013-06-13 22:04:00,55.6,51.0,30.05,NW,325,3.0,4.0,85,0.00,,,0.00,0,weatherlink.com 1.10,2013-06-14 03:04:00,
2013-06-13 22:19:00,55.6,51.0,30.05,NE,48,1.0,4.0,85,0.00,,,0.00,0,weatherlink.com 1.10,2013-06-14 03:19:00,
2013-06-13 22:34:00,55.6,52.0,30.05,West,279,2.0,6.0,86,0.00,,,0.00,0,weatherlink.com 1.10,2013-06-14 03:34:00,
2013-06-13 22:49:00,55.4,51.0,30.04,NNE,29,2.0,6.0,86,0.00,,,0.00,0,weatherlink.com 1.10,2013-06-14 03:49:00,
2013-06-13 23:04:00,55.3,52.0,30.05,NNW,345,3.0,4.0,87,0.00,,,0.00,0,weatherlink.com 1.10,2013-06-14 04:04:00,
2013-06-13 23:19:00,55.5,52.0,30.05,NNW,346,1.0,5.0,87,0.00,,,0.00,0,weatherlink.com 1.10,2013-06-14 04:19:00,
2013-06-13 23:34:00,55.5,51.0,30.04,ENE,59,2.0,5.0,86,0.00,,,0.00,0,weatherlink.com 1.10,2013-06-14 04:34:00,
2013-06-13 23:49:00,55.5,52.0,30.04,NNW,331,2.0,7.0,87,0.00,,,0.00,0,weatherlink.com 1.10,2013-06-14 04:49:00,